QPF
0.00 0.00 0.00 0.00 0.00 0.00 0.00 0.00 0.00 0.00 0.00 0.00 0.00 0.00 0.00 0.00 0.00 0.00 0.00 0.00 0.00 0.00 0.00 0.00 0.00 0.00 0.00 0.00 0.00 0.00 0.00 0.00 0.00 0.00 0.00 0.00 0.00 0.00 0.00 0.00 0.00 0.00 0.00
0.00 0.00 0.00 0.00 0.00 0.00 0.00 0.00 0.00 0.00 0.00 0.00 0.00 0.00 0.00 0.00 0.00 0.00 0.00 0.00 0.00 0.00 0.00 0.00 0.00 0.00 0.00 0.00 0.00 0.00 0.00 0.00 0.00 0.00 0.00 0.00 0.00 0.00 0.00 0.00 0.00 0.00 0.00
0.00 0.00 0.00 0.00 0.00 0.00 0.00 0.00 0.00 0.00 0.00 0.00 0.00 0.00 0.00 0.00 0.00 0.00 0.00 0.00 0.00 0.00 0.00 0.00 0.00 0.00 0.00 0.00 0.00 0.00 0.00 0.00 0.00 0.00 0.00 0.00 0.00 0.00 0.00 0.00 0.00 0.00 0.00
0.00 0.00 0.00 0.00 0.00 0.00 0.00 0.00 0.00 0.00 0.00 0.00 0.00 0.00 0.00 0.00 0.00 0.00 0.00 0.00 0.00 0.00 0.00 0.00 0.00 0.00 0.00 0.00 0.00 0.00 0.00 0.00 0.00 0.00 0.00 0.00 0.00 0.00 0.00 0.00 0.00 0.00 0.00
0.00 0.00 0.00 0.00 0.00 0.00 0.00 0.00 0.00 0.00 0.00 0.00 0.00 0.00 0.00 0.00 0.00 0.00 0.00 0.00 0.00 0.00 0.00 0.00 0.00 0.00 0.00 0.00 0.00 0.00 0.00 0.00 0.00 0.00 0.00 0.00 0.00 0.00 0.00 0.00 0.00 0.00 0.00
0.00 0.00 0.00 0.00 0.00 0.00 0.01 0.00 0.00 0.00 0.00 0.00 0.00 0.00 0.00 0.00 0.00 0.00 0.00 0.00 0.00 0.00 0.00 0.00 0.00 0.00 0.00 0.00 0.00 0.00 0.00 0.00 0.00 0.00 0.00 0.00 0.00 0.00 0.00 0.00 0.00 0.00 0.00
0.00 0.00 0.00 0.00 0.00 0.02 0.02 0.00 0.00 0.00 0.00 0.00 0.00 0.00 0.00 0.00 0.00 0.00 0.00 0.00 0.00 0.00 0.00 0.00 0.00 0.00 0.00 0.00 0.00 0.00 0.00 0.00 0.00 0.00 0.00 0.00 0.00 0.00 0.00 0.00 0.00 0.00 0.00
0.00 0.00 0.00 0.00 0.00 0.01 0.03 0.02 0.01 0.00 0.00 0.00 0.00 0.00 0.00 0.00 0.00 0.00 0.00 0.00 0.00 0.00 0.00 0.00 0.00 0.00 0.00 0.00 0.00 0.00 0.00 0.00 0.00 0.00 0.00 0.00 0.00 0.00 0.00 0.00 0.00 0.00 0.00
0.00 0.00 0.00 0.01 0.09 0.20 0.13 0.03 0.04 0.00 0.00 0.00 0.00 0.00 0.00 0.00 0.00 0.00 0.00 0.00 0.00 0.00 0.00 0.00 0.00 0.00 0.00 0.00 0.00 0.00 0.00 0.00 0.00 0.00 0.00 0.00 0.00 0.00 0.00 0.00 0.00 0.00 0.00
0.00 0.00 0.05 0.16 0.18 0.06 0.02 0.02 0.02 0.00 0.01 0.01 0.02 0.00 0.00 0.00 0.00 0.00 0.00 0.00 0.00 0.00 0.00 0.00 0.00 0.00 0.00 0.00 0.00 0.00 0.00 0.00 0.00 0.00 0.00 0.00 0.00 0.00 0.00 0.00 0.00 0.00 0.00
0.00 0.01 0.11 0.14 0.12 0.09 0.04 0.04 0.02 0.02 0.04 0.03 0.02 0.00 0.00 0.00 0.00 0.00 0.00 0.00 0.00 0.00 0.00 0.00 0.00 0.00 0.00 0.00 0.00 0.00 0.00 0.00 0.00 0.00 0.00 0.00 0.00 0.00 0.00 0.00 0.00 0.00 0.00
0.01 0.11 0.20 0.06 0.01 0.02 0.03 0.01 0.04 0.04 0.07 0.04 0.02 0.00 0.00 0.00 0.00 0.00 0.00 0.00 0.00 0.00 0.00 0.00 0.00 0.00 0.00 0.00 0.00 0.00 0.00 0.00 0.00 0.00 0.00 0.00 0.00 0.00 0.00 0.00 0.00 0.00 0.00
0.06 0.06 0.02 0.00 0.00 0.00 0.00 0.00 0.00 0.02 0.05 0.04 0.01 0.00 0.00 0.00 0.00 0.00 0.00 0.00 0.00 0.00 0.00 0.00 0.00 0.00 0.00 0.00 0.00 0.00 0.00 0.00 0.00 0.00 0.00 0.00 0.00 0.00 0.00 0.00 0.00 0.00 0.00
0.01 0.01 0.00 0.00 0.00 0.00 0.00 0.00 0.01 0.04 0.02 0.00 0.00 0.00 0.00 0.00 0.00 0.00 0.00 0.00 0.00 0.00 0.00 0.00 0.00 0.00 0.00 0.00 0.00 0.00 0.00 0.00 0.00 0.00 0.00 0.00 0.00 0.00 0.00 0.00 0.00 0.00 0.00
0.00 0.00 0.00 0.00 0.00 0.00 0.00 0.00 0.00 0.00 0.00 0.00 0.00 0.00 0.00 0.00 0.00 0.00 0.00 0.00 0.00 0.00 0.00 0.00 0.00 0.00 0.00 0.00 0.00 0.00 0.00 0.00 0.00 0.00 0.00 0.00 0.00 0.00 0.00 0.00 0.00 0.00 0.00
0.00 0.00 0.00 0.00 0.00 0.00 0.00 0.00 0.00 0.00 0.00 0.00 0.00 0.00 0.00 0.00 0.00 0.00 0.00 0.00 0.00 0.00 0.00 0.00 0.00 0.00 0.00 0.00 0.00 0.00 0.00 0.00 0.00 0.00 0.00 0.00 0.00 0.00 0.00 0.00 0.00 0.00 0.00
0.00 0.00 0.00 0.00 0.00 0.01 0.00 0.00 0.00 0.00 0.00 0.00 0.00 0.00 0.00 0.00 0.00 0.00 0.00 0.00 0.00 0.00 0.00 0.00 0.00 0.00 0.00 0.00 0.00 0.00 0.00 0.00 0.00 0.00 0.00 0.00 0.00 0.00 0.00 0.00 0.00 0.00 0.00
0.00 0.00 0.00 0.00 0.01 0.04 0.00 0.00 0.00 0.00 0.00 0.00 0.00 0.00 0.00 0.00 0.00 0.00 0.00 0.00 0.00 0.00 0.00 0.00 0.00 0.00 0.00 0.00 0.00 0.00 0.00 0.00 0.00 0.00 0.00 0.00 0.00 0.00 0.00 0.00 0.00 0.00 0.00
0.00 0.00 0.00 0.01 0.05 0.10 0.01 0.00 0.00 0.00 0.00 0.00 0.00 0.00 0.00 0.00 0.00 0.00 0.00 0.00 0.00 0.00 0.00 0.00 0.00 0.00 0.00 0.00 0.00 0.00 0.00 0.00 0.00 0.00 0.00 0.00 0.00 0.00 0.00 0.00 0.00 0.00 0.00
0.00 0.02 0.02 0.02 0.04 0.06 0.00 0.00 0.00 0.00 0.00 0.00 0.00 0.00 0.00 0.00 0.00 0.00 0.00 0.00 0.00 0.00 0.00 0.00 0.00 0.00 0.00 0.00 0.00 0.00 0.00 0.00 0.00 0.00 0.00 0.00 0.00 0.00 0.00 0.00 0.00 0.00 0.00
0.01 0.02 0.04 0.04 0.03 0.01 0.00 0.00 0.00 0.00 0.00 0.00 0.00 0.00 0.00 0.00 0.00 0.00 0.00 0.00 0.00 0.00 0.00 0.00 0.00 0.00 0.00 0.00 0.00 0.00 0.00 0.00 0.00 0.00 0.00 0.00 0.00 0.00 0.00 0.00 0.00 0.00 0.00
0.00 0.01 0.04 0.08 0.02 0.01 0.00 0.00 0.00 0.00 0.00 0.00 0.00 0.00 0.00 0.00 0.00 0.00 0.00 0.00 0.00 0.00 0.00 0.00 0.00 0.00 0.00 0.00 0.00 0.00 0.00 0.00 0.00 0.00 0.00 0.00 0.00 0.00 0.00 0.00 0.00 0.00 0.00
0.00 0.00 0.02 0.02 0.01 0.01 0.00 0.00 0.00 0.00 0.00 0.00 0.00 0.00 0.00 0.00 0.00 0.00 0.00 0.00 0.00 0.00 0.00 0.00 0.00 0.00 0.00 0.00 0.00 0.00 0.00 0.00 0.00 0.00 0.00 0.00 0.00 0.00 0.00 0.00 0.00 0.00 0.00
0.00 0.00 0.02 0.01 0.03 0.03 0.02 0.01 0.01 0.00 0.00 0.00 0.00 0.00 0.00 0.00 0.00 0.00 0.00 0.00 0.00 0.00 0.00 0.00 0.00 0.00 0.00 0.00 0.00 0.00 0.00 0.00 0.00 0.00 0.00 0.00 0.00 0.00 0.00 0.00 0.00 0.00 0.00
0.00 0.00 0.02 0.07 0.07 0.07 0.06 0.01 0.01 0.01 0.00 0.00 0.00 0.00 0.00 0.00 0.00 0.00 0.00 0.00 0.00 0.00 0.00 0.00 0.00 0.00 0.00 0.00 0.00 0.00 0.00 0.00 0.00 0.00 0.00 0.00 0.00 0.00 0.00 0.00 0.00 0.00 0.00
0.00 0.00 0.02 0.07 0.10 0.05 0.03 0.01 0.01 0.00 0.00 0.00 0.00 0.00 0.00 0.00 0.00 0.00 0.00 0.00 0.00 0.00 0.00 0.00 0.00 0.00 0.00 0.00 0.00 0.00 0.00 0.00 0.00 0.00 0.00 0.00 0.00 0.00 0.00 0.00 0.00 0.00 0.00
MSLP
1007.37 1008.09 1008.82 1009.36 1009.90 1010.44 1010.86 1011.48 1012.04 1012.58 1013.22 1013.73 1014.13 1014.43 1014.91 1015.33 1015.68 1015.87 1016.03 1016.40 1016.53 1016.79 1016.95 1017.22 1017.42 1017.33 1016.92 1016.71 1016.59 1016.43 1016.29 1016.19 1015.33 1015.33 1016.12 1016.51 1016.59 1016.47 1016.06 1015.87 1015.47 1015.30 1015.60
1006.92 1007.64 1008.32 1008.80 1009.30 1009.66 1010.32 1011.07 1011.73 1012.30 1012.94 1013.61 1014.09 1014.52 1014.87 1015.19 1015.51 1015.90 1016.17 1016.43 1016.64 1016.80 1017.14 1017.54 1017.65 1017.61 1017.42 1017.39 1017.08 1017.46 1017.44 1017.29 1016.63 1016.57 1016.89 1016.47 1016.71 1016.75 1016.69 1016.35 1015.82 1015.20 1015.35
1006.50 1007.12 1007.70 1008.33 1008.82 1009.17 1010.04 1010.81 1011.60 1012.10 1012.73 1013.37 1013.87 1014.30 1014.79 1015.24 1015.70 1016.04 1016.34 1016.55 1016.78 1017.06 1017.28 1017.35 1017.86 1018.08 1017.99 1017.85 1017.71 1017.34 1017.22 1017.41 1017.25 1016.92 1016.67 1016.70 1016.91 1016.67 1016.43 1015.97 1015.94 1015.78 1014.94
1005.91 1006.64 1007.22 1007.92 1008.52 1009.23 1010.03 1010.71 1011.36 1011.77 1012.18 1012.95 1013.80 1014.56 1015.06 1015.30 1015.78 1016.20 1016.63 1016.82 1017.09 1017.31 1017.50 1017.75 1017.95 1018.10 1018.44 1018.27 1018.22 1018.12 1018.00 1017.55 1017.49 1016.97 1016.70 1016.61 1016.50 1016.68 1016.44 1015.98 1015.69 1015.44 1015.32
1005.76 1006.46 1007.13 1007.84 1008.48 1009.05 1009.83 1010.69 1011.34 1012.00 1012.51 1013.16 1013.91 1014.48 1014.96 1015.36 1015.47 1015.92 1016.33 1016.70 1017.25 1017.41 1017.66 1017.90 1018.04 1018.33 1018.68 1018.64 1018.36 1018.37 1018.35 1017.83 1017.58 1017.34 1016.89 1016.75 1016.78 1017.02 1016.68 1016.43 1015.81 1015.44 1014.87
1005.42 1006.06 1006.74 1007.22 1007.70 1008.31 1009.43 1010.12 1010.68 1011.29 1011.92 1013.05 1014.16 1014.80 1015.10 1014.81 1015.77 1016.44 1016.82 1017.18 1017.28 1017.39 1017.52 1017.85 1017.91 1018.46 1018.79 1019.10 1019.17 1018.98 1018.87 1018.56 1018.28 1017.99 1017.32 1017.52 1017.37 1017.27 1016.72 1016.72 1015.98 1015.81 1014.95
1005.31 1005.88 1006.54 1006.99 1007.63 1008.46 1009.57 1010.34 1010.69 1011.19 1011.91 1012.62 1012.80 1014.66 1015.37 1015.75 1016.48 1016.72 1016.77 1016.81 1017.36 1017.31 1017.40 1017.65 1017.59 1017.34 1018.23 1018.24 1018.57 1018.95 1019.02 1018.88 1018.68 1018.45 1017.99 1017.57 1017.56 1017.35 1017.32 1016.95 1016.26 1016.31 1015.64
1005.09 1006.04 1007.32 1008.54 1009.61 1010.73 1011.32 1012.27 1010.01 1011.16 1011.80 1012.57 1012.13 1014.16 1015.92 1016.13 1016.94 1016.99 1017.18 1017.03 1017.23 1017.32 1017.42 1017.70 1017.90 1018.05 1018.28 1018.61 1018.19 1017.99 1017.93 1017.85 1017.95 1017.80 1017.44 1017.31 1017.14 1017.01 1017.07 1016.74 1016.68 1016.53 1015.73
1005.11 1006.55 1007.67 1008.72 1009.99 1010.28 1010.71 1011.63 1010.44 1010.75 1011.84 1012.16 1012.34 1013.85 1015.70 1016.42 1017.12 1017.27 1017.50 1017.35 1017.37 1017.48 1017.50 1017.73 1018.00 1018.20 1018.74 1018.77 1018.38 1017.93 1017.64 1017.34 1017.30 1017.46 1017.52 1017.47 1017.35 1017.19 1017.32 1016.89 1015.81 1015.39 1014.99
1006.07 1006.71 1007.67 1008.31 1008.81 1008.48 1007.14 1009.07 1010.06 1011.14 1011.63 1012.47 1013.43 1014.32 1015.09 1016.21 1017.19 1017.35 1017.37 1017.09 1017.08 1017.00 1017.37 1017.64 1018.01 1018.31 1018.56 1018.75 1018.22 1017.70 1017.39 1016.91 1016.79 1016.65 1016.68 1016.13 1016.09 1015.90 1016.25 1016.38 1015.80 1014.89 1014.46
1006.96 1007.48 1007.99 1008.06 1007.37 1007.80 1008.15 1009.83 1010.56 1012.19 1012.29 1012.97 1013.62 1014.27 1014.83 1015.83 1016.47 1016.50 1017.28 1016.96 1016.38 1016.69 1016.49 1016.63 1017.09 1018.05 1018.26 1018.46 1018.42 1017.81 1017.33 1017.26 1016.94 1016.43 1015.62 1014.85 1014.34 1013.97 1014.13 1015.28 1015.03 1015.02 1014.46
1006.94 1007.41 1008.01 1008.12 1008.23 1008.21 1008.44 1008.29 1010.37 1011.98 1012.50 1013.47 1013.67 1014.34 1015.34 1015.80 1016.46 1016.50 1016.70 1016.81 1017.03 1016.71 1016.65 1016.66 1017.18 1017.89 1018.09 1018.11 1017.96 1017.31 1017.31 1017.18 1016.26 1015.32 1014.65 1014.16 1013.75 1013.68 1013.77 1014.09 1014.73 1015.00 1014.82
1007.02 1007.78 1007.86 1007.68 1008.16 1008.23 1009.29 1009.83 1010.33 1011.47 1012.47 1013.28 1013.72 1014.16 1015.31 1015.65 1016.68 1016.91 1016.97 1016.96 1017.25 1017.14 1016.66 1016.94 1017.45 1017.55 1017.59 1017.41 1016.83 1017.08 1016.81 1016.12 1015.10 1014.57 1014.18 1013.91 1013.79 1013.87 1014.44 1014.35 1014.11 1014.05 1014.40
1006.66 1007.10 1008.00 1008.31 1008.37 1009.05 1009.50 1009.41 1010.23 1011.29 1011.62 1012.22 1013.22 1014.01 1014.34 1015.62 1016.09 1016.52 1016.47 1016.97 1017.14 1017.10 1016.69 1016.50 1016.55 1016.95 1016.87 1016.62 1016.38 1015.65 1015.46 1015.28 1015.09 1014.91 1014.34 1014.09 1013.99 1013.86 1013.62 1014.04 1014.18 1014.36 1014.58
1006.73 1006.83 1007.52 1007.91 1008.76 1009.22 1009.42 1009.50 1010.26 1010.77 1010.84 1011.69 1012.44 1012.83 1013.78 1014.61 1014.98 1015.22 1015.31 1015.59 1015.65 1016.00 1016.14 1015.89 1015.81 1015.27 1015.13 1014.58 1014.59 1014.60 1014.56 1014.44 1014.47 1014.22 1014.20 1014.25 1014.20 1014.44 1014.49 1014.63 1014.91 1014.87 1014.45
1006.15 1006.28 1007.56 1008.36 1008.77 1009.13 1009.49 1010.00 1010.89 1011.07 1011.39 1012.11 1012.43 1012.68 1014.26 1014.49 1014.81 1015.51 1015.72 1016.03 1016.35 1016.25 1016.09 1015.48 1015.16 1014.65 1014.38 1014.32 1014.27 1014.15 1014.08 1014.10 1014.03 1014.40 1014.30 1014.40 1014.46 1014.71 1015.13 1015.35 1015.18 1014.73 1014.33
1006.04 1006.67 1007.49 1008.04 1008.57 1008.97 1009.07 1009.69 1010.95 1012.55 1012.50 1012.79 1013.11 1013.49 1013.88 1014.44 1015.16 1015.42 1015.87 1016.34 1016.33 1016.20 1015.86 1015.15 1014.63 1014.46 1014.07 1014.15 1013.98 1013.94 1013.80 1013.86 1014.82 1014.41 1014.58 1014.70 1015.00 1014.84 1014.89 1014.25 1014.28 1014.22 1014.33
1006.11 1006.70 1007.35 1007.61 1008.19 1008.61 1008.93 1009.08 1009.48 1010.87 1011.69 1012.87 1013.79 1013.86 1014.32 1014.75 1015.05 1015.48 1016.23 1016.11 1016.19 1016.14 1014.81 1014.27 1013.98 1013.81 1013.95 1013.97 1014.06 1013.97 1013.93 1013.99 1014.11 1014.62 1014.82 1014.89 1014.47 1014.55 1014.25 1014.10 1014.16 1014.32 1014.59
1006.16 1006.68 1006.87 1007.55 1008.03 1008.32 1008.31 1008.22 1008.77 1009.89 1011.18 1012.17 1013.62 1014.16 1014.58 1014.84 1015.43 1015.98 1016.11 1015.32 1014.53 1014.08 1013.61 1013.57 1013.52 1013.54 1013.73 1014.03 1014.15 1014.26 1014.31 1014.21 1014.48 1015.08 1014.90 1014.41 1014.57 1014.53 1014.32 1014.33 1014.42 1014.51 1014.88
1006.49 1006.75 1006.80 1007.38 1007.77 1007.92 1007.49 1007.82 1008.35 1009.60 1010.79 1011.72 1012.13 1012.72 1013.40 1014.36 1014.59 1014.76 1014.57 1014.11 1014.17 1013.36 1013.36 1013.73 1013.51 1013.86 1014.02 1014.25 1014.39 1014.37 1014.35 1014.54 1015.07 1015.08 1014.65 1014.55 1014.58 1014.33 1014.08 1014.35 1014.80 1014.33 1014.29
1006.32 1006.81 1006.87 1007.18 1007.16 1007.09 1007.04 1007.37 1008.15 1009.10 1009.99 1011.24 1011.53 1011.65 1012.45 1012.78 1012.92 1012.89 1012.77 1013.07 1012.99 1013.12 1013.39 1013.84 1013.90 1013.87 1013.92 1013.96 1014.21 1014.27 1014.50 1014.99 1015.25 1015.04 1014.78 1014.15 1014.16 1013.92 1014.17 1014.92 1014.30 1014.07 1014.06
1006.17 1006.74 1006.98 1006.98 1006.84 1006.35 1006.65 1007.50 1008.16 1009.36 1010.55 1010.83 1010.82 1011.86 1012.64 1012.68 1012.24 1012.14 1012.39 1012.74 1012.98 1013.44 1013.58 1014.03 1013.97 1013.91 1013.84 1014.19 1014.24 1014.43 1015.24 1015.60 1015.26 1014.93 1014.22 1013.96 1014.02 1013.72 1014.14 1014.53 1013.72 1013.32 1013.38
1006.10 1006.46 1006.84 1006.85 1006.13 1006.18 1006.85 1007.43 1008.59 1009.49 1009.79 1009.87 1010.15 1011.13 1012.01 1011.81 1011.45 1011.89 1012.40 1012.67 1013.15 1013.44 1013.67 1013.99 1014.07 1014.04 1014.04 1014.22 1014.59 1015.21 1015.62 1015.77 1015.32 1014.91 1014.18 1013.89 1013.69 1013.71 1014.06 1013.55 1013.00 1012.60 1012.67
1006.09 1006.51 1006.83 1006.65 1006.68 1006.96 1007.55 1008.41 1009.00 1009.07 1009.25 1009.47 1009.81 1010.26 1010.72 1010.90 1011.34 1012.04 1012.44 1012.83 1013.17 1013.52 1013.86 1013.94 1014.00 1014.19 1014.34 1014.71 1015.17 1015.44 1015.84 1015.77 1015.20 1014.48 1014.20 1014.01 1013.79 1013.88 1013.42 1012.80 1012.30 1011.92 1012.11
1006.20 1006.59 1007.01 1007.40 1007.82 1008.08 1008.54 1008.88 1009.29 1009.70 1009.77 1009.39 1009.67 1009.94 1010.30 1010.93 1011.51 1012.25 1012.55 1012.92 1013.23 1013.60 1013.88 1013.99 1013.90 1014.18 1014.47 1015.17 1015.44 1015.55 1015.89 1016.07 1015.88 1015.56 1014.62 1013.99 1013.88 1013.65 1013.09 1012.37 1011.51 1011.15 1011.01
1006.34 1006.74 1007.14 1007.71 1008.42 1008.92 1008.98 1009.29 1009.62 1009.80 1009.60 1009.32 1009.52 1009.95 1010.48 1010.96 1011.63 1012.11 1012.52 1012.88 1013.30 1013.68 1013.94 1013.86 1014.10 1014.48 1014.95 1014.98 1015.29 1015.92 1015.99 1016.03 1015.74 1015.93 1015.41 1014.37 1013.71 1013.09 1012.38 1011.76 1011.14 1010.61 1009.83
Thickness
5834 5829 5823 5819 5816 5812 5807 5802 5797 5793 5786 5781 5777 5773 5766 5760 5754 5750 5746 5741 5737 5732 5728 5722 5716 5714 5715 5714 5713 5713 5710 5708 5710 5712 5707 5703 5702 5702 5705 5705 5706 5705 5701
5836 5830 5824 5822 5819 5815 5809 5804 5799 5792 5787 5780 5774 5767 5762 5757 5753 5745 5739 5736 5730 5725 5719 5711 5706 5705 5704 5701 5701 5694 5692 5692 5695 5688 5689 5693 5689 5688 5687 5688 5690 5694 5692
5838 5832 5828 5822 5818 5816 5809 5804 5798 5792 5785 5779 5772 5765 5759 5752 5746 5741 5735 5730 5724 5718 5712 5707 5698 5693 5691 5689 5688 5688 5688 5683 5682 5681 5680 5681 5677 5678 5678 5681 5679 5679 5684
5841 5834 5829 5823 5818 5813 5808 5802 5797 5794 5788 5778 5768 5757 5751 5747 5740 5733 5726 5721 5717 5712 5706 5699 5693 5688 5682 5680 5677 5676 5673 5673 5670 5671 5670 5669 5668 5665 5665 5666 5666 5669 5667
5838 5832 5826 5821 5818 5814 5807 5799 5793 5785 5779 5772 5761 5753 5745 5739 5737 5731 5725 5718 5710 5704 5698 5692 5687 5680 5672 5668 5667 5664 5660 5661 5659 5657 5657 5657 5653 5647 5648 5649 5651 5653 5657
5839 5834 5831 5828 5824 5819 5809 5802 5795 5787 5780 5765 5751 5742 5735 5738 5726 5718 5712 5706 5704 5698 5692 5685 5680 5669 5663 5655 5650 5649 5647 5646 5643 5643 5645 5636 5635 5633 5636 5632 5635 5631 5634
5837 5835 5832 5828 5821 5813 5802 5793 5785 5776 5766 5755 5754 5736 5725 5720 5712 5708 5705 5702 5693 5691 5687 5680 5677 5676 5663 5659 5651 5643 5638 5634 5631 5629 5626 5627 5621 5621 5618 5617 5622 5618 5620
5836 5830 5819 5807 5794 5782 5775 5766 5777 5765 5754 5740 5742 5727 5711 5709 5700 5697 5692 5692 5688 5684 5680 5674 5667 5661 5655 5647 5647 5643 5639 5634 5626 5623 5621 5617 5615 5615 5611 5611 5609 5607 5612
5832 5820 5811 5801 5782 5775 5766 5723 5728 5753 5744 5738 5735 5720 5704 5697 5691 5687 5683 5682 5679 5675 5671 5665 5659 5652 5641 5636 5635 5633 5631 5626 5622 5616 5612 5608 5606 5604 5601 5600 5605 5605 5605
5818 5813 5803 5795 5787 5781 5789 5745 5731 5737 5738 5731 5718 5710 5702 5693 5681 5677 5677 5678 5672 5671 5665 5658 5650 5644 5637 5630 5631 5627 5621 5619 5615 5612 5610 5608 5607 5605 5602 5597 5598 5601 5602
5804 5800 5795 5792 5790 5778 5766 5735 5720 5716 5722 5718 5709 5702 5696 5690 5680 5678 5668 5671 5673 5667 5664 5660 5655 5641 5634 5625 5618 5617 5613 5607 5604 5603 5606 5610 5612 5613 5611 5600 5597 5595 5596
5798 5793 5786 5783 5780 5774 5765 5757 5732 5717 5714 5704 5703 5697 5691 5683 5675 5671 5668 5665 5661 5661 5656 5654 5647 5634 5627 5620 5614 5615 5606 5600 5604 5606 5606 5606 5607 5606 5604 5599 5591 5587 5585
5790 5778 5778 5775 5773 5768 5754 5745 5732 5720 5709 5703 5698 5694 5681 5679 5669 5664 5661 5659 5652 5650 5652 5643 5635 5629 5622 5617 5616 5608 5603 5605 5607 5606 5604 5602 5602 5600 5591 5589 5587 5586 5580
5783 5778 5768 5764 5763 5756 5749 5747 5733 5717 5714 5709 5697 5688 5686 5673 5668 5663 5663 5654 5647 5645 5646 5644 5639 5628 5622 5617 5612 5614 5611 5606 5601 5597 5597 5597 5596 5594 5593 5586 5581 5577 5572
5773 5773 5763 5756 5751 5744 5741 5738 5729 5723 5721 5709 5700 5695 5685 5676 5673 5670 5666 5661 5659 5650 5644 5643 5636 5636 5630 5628 5621 5616 5612 5607 5601 5599 5594 5589 5587 5582 5579 5575 5569 5565 5565
5767 5767 5755 5748 5742 5736 5731 5727 5712 5711 5707 5701 5697 5694 5676 5673 5667 5659 5655 5649 5643 5639 5640 5638 5633 5633 5628 5622 5616 5612 5608 5604 5599 5591 5588 5583 5579 5574 5566 5562 5560 5560 5559
5759 5754 5746 5740 5732 5727 5727 5719 5707 5691 5687 5684 5682 5680 5676 5669 5657 5653 5647 5640 5636 5634 5636 5635 5632 5627 5625 5618 5614 5609 5604 5602 5589 5587 5581 5576 5569 5567 5564 5567 5563 5559 5553
5748 5740 5738 5734 5727 5720 5717 5717 5714 5699 5691 5682 5670 5671 5662 5656 5653 5646 5637 5635 5635 5631 5640 5637 5633 5629 5622 5615 5608 5604 5600 5596 5591 5582 5575 5570 5569 5565 5565 5563 5558 5551 5544
5734 5729 5730 5724 5717 5712 5714 5716 5711 5700 5688 5680 5666 5661 5654 5650 5642 5635 5630 5640 5644 5645 5645 5638 5633 5627 5619 5610 5603 5598 5593 5589 5583 5573 5570 5570 5564 5560 5559 5554 5549 5541 5532
5721 5718 5720 5714 5708 5706 5713 5709 5704 5693 5682 5675 5673 5666 5660 5649 5647 5644 5642 5644 5639 5645 5640 5631 5628 5619 5612 5604 5598 5593 5589 5582 5573 5569 5568 5564 5559 5557 5556 5549 5539 5540 5534
5713 5708 5710 5707 5706 5708 5708 5704 5698 5690 5682 5669 5668 5668 5660 5656 5654 5654 5652 5646 5644 5641 5634 5625 5620 5615 5609 5603 5596 5591 5584 5574 5567 5564 5562 5564 5558 5555 5549 5538 5540 5538 5531
5705 5699 5697 5698 5702 5706 5703 5696 5690 5680 5667 5667 5670 5659 5650 5653 5655 5654 5649 5644 5640 5633 5628 5620 5615 5610 5606 5597 5592 5586 5574 5565 5563 5560 5562 5560 5555 5553 5545 5537 5541 5540 5532
5695 5693 5690 5692 5700 5698 5694 5689 5679 5671 5671 5673 5671 5662 5653 5653 5656 5651 5644 5641 5634 5628 5622 5616 5611 5606 5599 5593 5586 5575 5567 5560 5558 5555 5557 5556 5554 5549 5542 5542 5543 5541 5533
5687 5685 5683 5685 5685 5685 5680 5672 5668 5670 5670 5670 5667 5663 5658 5657 5652 5645 5640 5635 5630 5623 5615 5611 5607 5600 5593 5585 5577 5569 5561 5556 5554 5553 5552 5551 5549 5544 5544 5545 5545 5543 5534
5680 5677 5673 5669 5666 5666 5663 5663 5660 5659 5659 5666 5663 5661 5657 5653 5647 5640 5636 5631 5625 5617 5610 5605 5602 5595 5588 5578 5570 5564 5558 5553 5548 5546 5546 5548 5545 5544 5545 5546 5547 5545 5541
5673 5671 5667 5661 5656 5654 5652 5652 5651 5652 5656 5661 5660 5656 5652 5648 5642 5637 5633 5626 5619 5611 5605 5601 5594 5587 5579 5574 5567 5560 5555 5550 5546 5541 5539 5541 5544 5546 5548 5548 5548 5547 5549